Flag for U.S.A. Weather past 2 weeks in Hopkinsville, Kentucky, U.S.A.

Now
62 °F

Sunny.


Feels Like: 62 °F
Forecast: 45 / 72 °F
Wind: 15 mph from East

Location: Fort Campbell U. S. Army Airfield

Current Time: Apr 1, 2015 at 10:26:41 AM

Latest Report: Apr 1, 2015 at 9:58 AM


Visibility: 9 mi

Pressure: 30.09 "Hg

Humidity: 38%

Dew point: 36 °F

Location of HopkinsvilleLocation

Historic Weather in Hopkinsville — Graph

°F

Hopkinsville temperature yesterday

Maximum temperature yesterday: 78 °F (at 2:58 PM)
Minimum temperature yesterday: 47 °F (at 3:58 AM)
Average temperature yesterday: 62 °F

Past Weeks' High & Low Weather Summary

 TemperatureHumidityPressure
High78 °F (Mar 31, 2:58 PM)100% (Mar 26, 7:04 AM)30.36 "Hg (Mar 26, 7:04 AM)
Low26 °F (Mar 28, 6:58 AM)22% (Mar 29, 11:58 AM)29.82 "Hg (Mar 26, 3:58 AM)
Average51 °F64%30.09 "Hg
* Reported Mar 17 8:58 AM — Apr 1 8:58 AM, Hopkinsville, Weather by CustomWeather, © 2015

Note: Actual official high and low records may vary slightly from our data, if they occured in-between our weather recording intervals... More about our weather records

Advertising

Hopkinsville weather history for previous 24 hours

 ConditionsComfort  
Time TempWeatherWind HumidityBarometerVisibility
8:58 AM
Wed, Apr 1
57 °FSunny.9 mph49%30.09 "Hg10 mi
7:58 AM51 °FSunny.5 mph58%30.08 "Hg10 mi
6:58 AM46 °FSunny.2 mph67%30.07 "Hg10 mi
5:58 AM47 °FClear.5 mph66%30.06 "Hg10 mi
4:58 AM48 °FClear.3 mph62%30.03 "Hg10 mi
3:58 AM50 °FClear.5 mph58%30.03 "Hg10 mi
2:58 AM52 °FClear.7 mph54%30.01 "Hg10 mi
1:58 AM53 °FClear.2 mph53%30.00 "Hg10 mi
12:58 AM49 °FClear.3 mph67%29.98 "Hg10 mi
11:58 PM
Tue, Mar 31
52 °FClear.7 mph60%29.98 "Hg10 mi
10:58 PM57 °FClear.7 mph51%29.99 "Hg10 mi
9:58 PM57 °FClear.7 mph55%29.96 "Hg10 mi
8:58 PM61 °FClear.8 mph50%29.93 "Hg10 mi
7:58 PM69 °FPassing clouds.6 mph32%29.91 "Hg10 mi
6:58 PM72 °FSunny.5 mph34%29.89 "Hg10 mi
5:58 PM75 °FSunny.6 mph33%29.87 "Hg10 mi
4:58 PM76 °FSunny.8 mph35%29.86 "Hg10 mi
3:58 PM77 °FSunny.9 mph35%29.88 "Hg9 mi
2:58 PM78 °FSunny.13 mph31%29.89 "Hg6 mi
1:58 PM77 °FSunny.14 mph33%29.91 "Hg6 mi
12:58 PM75 °FSunny.14 mph38%29.93 "Hg7 mi
11:58 AM73 °FSunny.16 mph43%29.95 "Hg6 mi
10:58 AM70 °FSunny.14 mph53%29.95 "Hg7 mi
Weather by CustomWeather, © 2015

See weather overviewHow to use our weather pages